This is the latest recevied weather packets stored in our database for station/object KO4DYK. If no packets are shown the sender has not sent any weather packets the latest 10 day(s).
| Time | Temp. | Humidity | Pressure | Rain* | Wind** | Luminosity | Snow |
|---|---|---|---|---|---|---|---|
| 1777397720 | 26.11° C | 89% | 1019.5 hPa | 0 mm | - | 323 W/m² | - |
| 1777397416 | 25.56° C | 91% | 1019.4 hPa | 0 mm | - | 921 W/m² | - |
| 1777397112 | 25.56° C | 90% | 1019.6 hPa | 0 mm | - | 248 W/m² | - |
| 1777396809 | 25.56° C | 90% | 1019.4 hPa | 0 mm | - | 393 W/m² | - |
| 1777396506 | 25.56° C | 90% | 1019.3 hPa | 0 mm | - | 263 W/m² | - |
| 1777396203 | 25° C | 91% | 1019.9 hPa | 0 mm | - | 459 W/m² | - |
| 1777395898 | 25° C | 92% | 1020 hPa | 0 mm | - | 319 W/m² | - |
| 1777395594 | 24.44° C | 92% | 1019.9 hPa | 0 mm | - | 346 W/m² | - |
| 1777395290 | 25° C | 92% | 1020 hPa | 0 mm | - | 182 W/m² | - |
| 1777394988 | 24.44° C | 93% | 1019.8 hPa | 0 mm | - | 231 W/m² | - |
| 1777394684 | 24.44° C | 93% | 1020 hPa | 0 mm | - | 255 W/m² | - |
| 1777394380 | 24.44° C | 93% | 1020 hPa | 0 mm | - | 206 W/m² | - |
| 1777394078 | 24.44° C | 93% | 1020 hPa | 0 mm | - | 216 W/m² | - |
| 1777393773 | 24.44° C | 94% | 1020 hPa | 0 mm | - | 247 W/m² | - |
| 1777393472 | 23.89° C | 93% | 1020.1 hPa | 0 mm | - | 273 W/m² | - |
| 1777393169 | 23.89° C | 94% | 1020.2 hPa | 0 mm | - | 252 W/m² | - |
| 1777392866 | 23.89° C | 94% | 1020.4 hPa | 0 mm | - | 137 W/m² | - |
| 1777392561 | 23.89° C | 94% | 1020.2 hPa | 0 mm | - | 127 W/m² | - |
| 1777392257 | 23.89° C | 93% | 1020.3 hPa | 0 mm | - | 152 W/m² | - |
| 1777391952 | 23.89° C | 93% | 1020.2 hPa | 0 mm | - | 126 W/m² | - |
| 1777391647 | 23.89° C | 93% | 1020.1 hPa | 0 mm | - | 124 W/m² | - |
| 1777391344 | 23.89° C | 93% | 1020.4 hPa | 0 mm | - | 114 W/m² | - |
| 1777391041 | 23.89° C | 93% | 1020.2 hPa | 0 mm | - | 100 W/m² | - |
| 1777390736 | 23.89° C | 93% | 1020.1 hPa | 0 mm | - | 125 W/m² | - |
| 1777390433 | 23.89° C | 93% | 1020.5 hPa | 0 mm | - | 167 W/m² | - |
* Rain latest hour (hover to see other rain measurements)
** Current wind speed in m/s (hover to see current wind gust speed)